EYESAT A 1 22825U 93061C 24347.60798853 .00000259 00000-0 11658-3 0 9994 2 22825 98.7653 42.0399 0007338 278.0174 82.0176 14.30679136628398 CUTE-1 1 27844U 03031E 24347.98033080 .00000715 00000-0 33222-3 0 9991 2 27844 98.6776 352.5816 0009532 352.5929 7.5107 14.23697704113259 CUBESAT XI 4 1 27848U 03031J 24348.48048266 .00000601 00000-0 28564-3 0 9990 2 27848 98.6806 353.2095 0009709 7.8360 352.2968 14.23077060113082 CUBESAT XI 5 1 28895U 05043F 24348.16010075 .00003037 00000-0 51846-3 0 9995 2 28895 98.2235 124.7473 0015596 149.1877 211.0247 14.69618269 20959 CUTE-1.7+APD II 1 32785U 08021C 24347.89383184 .00006983 00000-0 55236-3 0 9990 2 32785 97.7700 312.4376 0013102 105.2960 254.9713 15.00881154902244 COMPASS 1 1 32787U 08021E 24347.51299154 .00029637 00000-0 11728-2 0 9992 2 32787 97.6362 325.3008 0005280 332.8167 27.2793 15.25392721904839 AAUSAT CUBESAT 2 1 32788U 08021F 24347.75090452 .00052282 00000-0 14484-2 0 9993 2 32788 97.6041 330.7582 0001065 79.3135 280.8228 15.36790459905547 CANX-2 1 32790U 08021H 24347.63570715 .00006100 00000-0 51078-3 0 9997 2 32790 97.7897 310.7372 0012770 99.2705 260.9962 14.98746876901983 SEEDS 1 32791U 08021J 24348.19951961 .00014692 00000-0 87560-3 0 9996 2 32791 97.7105 319.4470 0007343 67.0145 293.1858 15.11263843903564 SWISSCUBE 1 35932U 09051B 24348.41914715 .00002107 00000-0 44535-3 0 9994 2 35932 98.4484 235.2184 0007961 117.3079 242.8932 14.60392075808741 BEESAT 1 35933U 09051C 24347.91827162 .00001881 00000-0 40247-3 0 9992 2 35933 98.4414 235.3630 0006165 128.4864 231.6889 14.59943205808698 ITUPSAT 1 1 35935U 09051E 24347.65433479 .00001717 00000-0 37744-3 0 9995 2 35935 98.4511 234.7720 0008225 138.9564 221.2255 14.58805165808270 TISAT 1 1 36799U 10035E 24347.66310564 .00014298 00000-0 89497-3 0 9998 2 36799 98.0709 245.4349 0004846 17.9194 342.2203 15.09505716783916 HORYU 2 1 38340U 12025D 24348.12453424 .00005554 00000-0 65627-3 0 9992 2 38340 98.1706 91.8758 0009518 173.7230 186.4105 14.85050054677169 STRAND 1 1 39090U 13009E 24347.96657856 .00000702 00000-0 25336-3 0 9997 2 39090 98.3766 171.3953 0009879 79.7251 280.5049 14.36513611617929 BRITE-A TUGSAT-1 1 39091U 13009F 24347.56600620 .00000480 00000-0 17918-3 0 9991 2 39091 98.3817 170.2790 0011433 87.5053 272.7442 14.36104868617874 BRITE-U UNIBRITE 1 39092U 13009G 24347.52900578 .00000482 00000-0 18040-3 0 9992 2 39092 98.3857 170.2136 0010345 84.1390 276.0975 14.35976889617801 AIST 2 1 39133U 13015D 24348.47050851 .00007602 00000-0 38680-3 0 9993 2 39133 64.8716 246.5511 0024487 299.6815 60.1873 15.17249296640520 NEE 01 PEGASUS 1 39151U 13018B 24347.99793994 .00004714 00000-0 51119-3 0 9997 2 39151 98.0529 107.4025 0014314 172.3804 187.7632 14.88600628628554 CUBEBUG 1 1 39153U 13018D 24348.29873299 .00005982 00000-0 61067-3 0 9991 2 39153 98.0946 117.5732 0013792 162.9086 197.2599 14.90941002628861 ESTCUBE 1 1 39161U 13021C 24347.75027356 .00002970 00000-0 41497-3 0 9998 2 39161 97.8086 48.7883 0008993 19.8957 340.2603 14.78330883623493 POPACS 1 1 39268U 13055D 24348.16562887 .00042122 -21790-6 55918-3 0 9994 2 39268 80.9787 302.5802 0325428 227.2236 130.1205 15.14728076588887 POPACS 2 1 39269U 13055E 24348.15262173 .00021254 00000-0 44867-3 0 9997 2 39269 81.0000 43.8096 0513743 133.5050 231.0071 14.66507590582956 POPACS 3 1 39270U 13055F 24347.73325441 .00009260 00000-0 24727-3 0 9996 2 39270 81.0077 101.3404 0605077 294.2519 59.6598 14.42390946558659 ZACUBE 1 39417U 13066B 24347.82929870 .00008383 00000-0 78924-3 0 9990 2 39417 97.7576 300.4743 0044973 289.6936 69.9434 14.93331266598205 WNISAT 1 1 39423U 13066H 24348.48672864 .00002244 00000-0 42723-3 0 9996 2 39423 97.6640 168.3882 0167654 165.4672 195.1436 14.56322369586730 TRITON 1 1 39427U 13066M 24348.43481901 .00004171 00000-0 55509-3 0 9992 2 39427 97.8410 260.9233 0096481 223.2380 136.1229 14.77005572592838 GOMX 1 1 39430U 13066Q 24348.46514891 .00003060 00000-0 49208-3 0 9999 2 39430 97.7042 211.9501 0136913 42.2272 318.9380 14.66144316589292 BRITE-PL 1 39431U 13066R 24347.84494373 .00001471 00000-0 30984-3 0 9998 2 39431 97.7267 131.2216 0193396 286.2332 71.7664 14.49882625583997 HUMSAT D 1 39433U 13066T 24348.49646888 .00024079 00000-0 10977-2 0 9990 2 39433 97.4979 337.2182 0017191 35.1194 325.1170 15.20511315603065 CUBEBUG 2 1 39440U 13066AA 24347.80985865 .00006524 00000-0 70609-3 0 9997 2 39440 97.8315 288.1897 0067529 49.8621 310.8484 14.86915409594842 NEE 02 KRYSAOR 1 39441U 13066AB 24347.78198029 .00004173 00000-0 50266-3 0 9998 2 39441 97.8397 283.1997 0073165 74.5412 286.3867 14.82481855594374 FUNCUBE 1 1 39444U 13066AE 24348.31424765 .00009660 00000-0 81816-3 0 9991 2 39444 97.7437 304.6874 0040739 264.1475 95.5102 14.97557214597454 UWE-3 1 39446U 13066AG 24347.81728736 .00008034 00000-0 81732-3 0 9993 2 39446 97.8030 294.3620 0056603 353.4190 6.6278 14.89826243595269 BRITE TORONTO 1 40020U 14033L 24348.31189006 .00002253 00000-0 36017-3 0 9998 2 40020 97.9008 119.5599 0080383 239.4466 119.8791 14.70674573561299 DUCHIFAT 1 1 40021U 14033M 24348.42012806 .00019586 00000-0 98352-3 0 9991 2 40021 98.0990 342.8204 0009173 199.6666 160.4213 15.17303030571205 FLOCK 1C 10 1 40023U 14033P 24347.93618813 .00064728 00000-0 22481-2 0 9995 2 40023 98.0830 337.6051 0003832 179.5665 180.5577 15.29509321570955 NANOSAT C BR1 1 40024U 14033Q 24347.92757236 .00014296 00000-0 86141-3 0 9997 2 40024 98.0802 328.5749 0003433 308.4468 51.6452 15.10899608570162 QB50P1 1 40025U 14033R 24347.73211518 .00011491 00000-0 80552-3 0 9999 2 40025 98.0646 315.2806 0010214 308.1018 51.9285 15.05338329569683 FLOCK 1C 7 1 40026U 14033S 24347.91503354 .00153023 00000-0 22866-2 0 9993 2 40026 98.0651 353.1435 0006339 117.3753 242.8145 15.54463129571240 FLOCK 1C 1 1 40027U 14033T 24348.45502684 .00090002 00000-0 21342-2 0 9994 2 40027 98.0754 346.8158 0003915 132.9921 227.1652 15.41387101571434 POPSAT HIP 1 1 40028U 14033U 24348.40464176 .00009986 00000-0 72565-3 0 9998 2 40028 98.0662 317.5197 0006574 262.1865 97.8613 15.04051688570185 FLOCK 1C 2 1 40029U 14033V 24348.42966767 .00067812 00000-0 15914-2 0 9990 2 40029 98.0998 346.9824 0003476 154.9495 205.1919 15.41799518571474 FLOCK 1C 4 1 40031U 14033X 24347.87920106 .00031294 00000-0 14194-2 0 9992 2 40031 98.0854 334.9303 0003112 225.0682 135.0299 15.20763571570234 QB50P2 1 40032U 14033Y 24347.73944376 .00008969 00000-0 65833-3 0 9993 2 40032 98.0230 305.6753 0006665 237.3963 122.6619 15.03704275569458 FLOCK 1C 11 1 40033U 14033Z 24347.88073964 .00116856 00000-0 23595-2 0 9999 2 40033 98.1054 358.0098 0005561 161.0462 199.0993 15.46052908571192 ANTELSAT 1 40034U 14033AA 24347.39432638 .00006632 00000-0 77789-3 0 9998 2 40034 97.7122 144.9267 0050069 77.8036 282.8780 14.84376788563752 FLOCK 1C 9 1 40035U 14033AB 24348.45001148 .00148932 00000-0 22034-2 0 9997 2 40035 98.0746 350.1632 0007546 113.9486 246.2556 15.54742883571585 FLOCK 1C 6 1 40036U 14033AC 24347.92252081 .00071007 00000-0 16205-2 0 9994 2 40036 98.0879 350.1498 0002116 115.4009 244.7456 15.42627777570985 PERSEUS M2 1 40037U 14033AD 24348.44235853 .00003546 00000-0 35222-3 0 9995 2 40037 97.9408 280.1727 0011891 331.7058 28.3513 14.92325344569040 FLOCK 1C 5 1 40038U 14033AE 24348.39310027 .00092804 00000-0 20071-2 0 9997 2 40038 98.0852 348.5559 0006211 142.9200 217.2476 15.44121794571477 PERSEUS M1 1 40039U 14033AF 24347.75093344 .00003954 00000-0 39328-3 0 9991 2 40039 97.9174 275.0011 0011718 333.1063 26.9546 14.92206279568292 FLOCK 1C 8 1 40040U 14033AG 24348.02931188 .02793548 17624-1 36404-2 0 9990 2 40040 98.0535 16.7054 0003492 167.2709 192.8662 16.11588937572673 FLOCK 1C 3 1 40041U 14033AH 24348.46643527 .00626620 00000-0 31774-2 0 9994 2 40041 98.0504 351.0101 0007761 138.0784 222.1077 15.79837819571710 POLYITAN 1 1 40042U 14033AJ 24347.68260428 .00016480 00000-0 10008-2 0 9997 2 40042 98.0891 320.4725 0008752 250.1713 109.8572 15.10554235570219 TIGRISAT 1 40043U 14033AK 24347.90335889 .00003495 00000-0 44415-3 0 9999 2 40043 97.7107 143.3991 0054277 80.9127 279.8223 14.81218437563899 LEMUR 1 1 40044U 14033AL 24347.89289487 .00003534 00000-0 44962-3 0 9991 2 40044 97.7151 142.8547 0053396 84.3288 276.4010 14.81193471563737 AEROCUBE 6A 1 40045U 14033AM 24347.88529234 .00008238 00000-0 87896-3 0 9997 2 40045 97.6756 154.9940 0047129 53.6095 306.9456 14.88260480564568 AEROCUBE 6B 1 40046U 14033AN 24347.40653547 .00009003 00000-0 93765-3 0 9994 2 40046 97.6729 153.4149 0045655 49.7217 310.7978 14.89258190564320 UKUBE 1 1 40074U 14037F 24348.26742137 .00011565 00000-0 93787-3 0 9998 2 40074 98.3610 290.0464 0002699 121.7487 238.3997 14.99852465565566 BRITE-PL 2 1 40119U 14049B 24348.14077612 .00003127 00000-0 32165-3 0 9995 2 40119 97.8874 87.2975 0016028 132.2033 228.0549 14.90959747559317 DEORBITSAIL 1 40719U 15032E 24348.45810158 .00008982 00000-0 88713-3 0 9992 2 40719 97.6614 206.4238 0010755 267.0577 92.9411 14.92125264508772 HORYU 4 1 41340U 16012D 24347.76544853 .00020970 00000-0 79206-3 0 9999 2 41340 31.0002 244.5096 0008997 354.0503 6.0031 15.25770247485358 ALSAT 1N 1 41789U 16059G 24348.45556634 .00001734 00000-0 31180-3 0 9990 2 41789 97.8158 5.7212 0027478 144.8051 215.4976 14.67590336439179 RAVAN 1 41849U 16067B 24347.49308598 .00022659 00000-0 99472-3 0 9990 2 41849 98.0566 176.6182 0011233 137.0141 223.1973 15.21902485443027 CELTEE 1 1 41850U 16067C 24348.25919671 .00008519 00000-0 51503-3 0 9999 2 41850 98.1054 167.6558 0000892 7.2737 352.8504 15.10935068442421 OPTICUBE 04 1 41851U 16067D 24347.46869650 .00004136 00000-0 29328-3 0 9994 2 41851 98.0847 160.3657 0017281 173.8288 186.3153 15.05265141442031 AEROCUBE 8D 1 41852U 16067E 24347.92734274 .00010602 00000-0 60376-3 0 9992 2 41852 98.1098 167.6283 0003771 220.4545 139.6404 15.13022294442376 AEROCUBE 8C 1 41853U 16067F 24348.47164516 .00009294 00000-0 52894-3 0 9991 2 41853 98.0922 166.3609 0007174 146.8349 213.3331 15.13070731442440 PROMETHEUS 2-1 1 41854U 16067G 24347.99441172 .00030892 00000-0 10623-2 0 9995 2 41854 98.0926 176.9705 0008933 156.8273 203.3370 15.29997912442943 PROMETHEUS 2-3 1 41855U 16067H 24347.47481725 .00031891 00000-0 11008-2 0 9995 2 41855 98.0864 175.7210 0007369 169.9609 190.1778 15.29880407442869 DSAT 1 42794U 17036AF 24347.89399745 .00010226 00000-0 63452-3 0 9991 2 42794 97.4951 323.8806 0099246 259.9512 99.0505 15.05821696407569 LEMUR 2 GREENBERG 1 42837U 17042N 24348.45704435 .00013087 00000-0 77321-3 0 9993 2 42837 97.3582 169.5338 0013630 133.5024 226.7342 15.11539610404653 LEMUR 2 ANDIS 1 42838U 17042P 24348.45902191 .00015664 00000-0 92700-3 0 9994 2 42838 97.3555 169.1682 0014639 140.5450 219.6850 15.11425951404649 LEMUR 2 MONSON 1 42839U 17042Q 24348.48025637 .00013014 00000-0 81075-3 0 9999 2 42839 97.3890 169.5792 0010499 119.7328 240.4948 15.09643707404570 LEMUR 2 FURIAUS 1 42840U 17042R 24347.50584195 .00014329 00000-0 88679-3 0 9999 2 42840 97.3602 168.0493 0011300 187.1980 172.9089 15.09857113404427 LEMUR 2 PETERG 1 42841U 17042S 24348.40934026 .00015625 00000-0 93576-3 0 9994 2 42841 97.3869 171.5628 0006104 112.8523 247.3352 15.11072099404656 LEMUR 2 DEMBITZ 1 42842U 17042T 24347.33111403 .00016097 00000-0 98476-3 0 9990 2 42842 97.3723 169.8445 0010105 144.7276 215.4624 15.10263697404505 LEMUR 2 ZACHARY 1 42845U 17042W 24348.46308800 .00015660 00000-0 81387-3 0 9995 2 42845 97.3689 172.7590 0006168 170.4115 189.7237 15.16148162404941